| time (UTC) | temp F | wind direction | speed MPH | gust MPH | rain 1hr in | rain 24hr in | rain mn in | humidity % | barometer mb |
| 20260904181341 | 89 | 187 | 5.0 | 9.0 | 0.00 | 0.00 | 0.00 | 20 | 1010.9 |
| 20260904180813 | 89 | 192 | 5.0 | 10.0 | 0.00 | 0.00 | 0.00 | 21 | 1010.9 |
| 20260904180324 | 89 | 194 | 6.0 | 11.0 | 0.00 | 0.00 | 0.00 | 20 | 1011.0 |
| 20260904175834 | 88 | 198 | 6.0 | 11.0 | 0.00 | 0.00 | 0.00 | 21 | 1010.9 |
| 20260904175325 | 87 | 211 | 2.0 | 8.0 | 0.00 | 0.00 | 0.00 | 20 | 1010.9 |
| 20260904174818 | 87 | 326 | 5.0 | 9.0 | 0.00 | 0.00 | 0.00 | 20 | 1010.9 |
| 20260904174329 | 87 | 250 | 4.0 | 9.0 | 0.00 | 0.00 | 0.00 | 20 | 1010.9 |
| 20260904173821 | 86 | 265 | 7.0 | 9.0 | 0.00 | 0.00 | 0.00 | 20 | 1010.9 |
| 20260904173316 | 86 | 241 | 6.0 | 9.0 | 0.00 | 0.00 | 0.00 | 20 | 1010.9 |
| 20260904172830 | 86 | 218 | 7.0 | 9.0 | 0.00 | 0.00 | 0.00 | 20 | 1010.9 |
| 20260904172342 | 86 | 230 | 7.0 | 10.0 | 0.00 | 0.00 | 0.00 | 21 | 1010.9 |
| 20260904171832 | 86 | 227 | 5.0 | 9.0 | 0.00 | 0.00 | 0.00 | 19 | 1010.9 |
| 20260904171343 | 86 | 239 | 6.0 | 9.0 | 0.00 | 0.00 | 0.00 | 20 | 1010.9 |
| 20260904170834 | 85 | 251 | 4.0 | 11.0 | 0.00 | 0.00 | 0.00 | 20 | 1010.9 |
| 20260904170325 | 85 | 293 | 8.0 | 11.0 | 0.00 | 0.00 | 0.00 | 19 | 1010.9 |
| 20260904165814 | 85 | 298 | 4.0 | 12.0 | 0.00 | 0.00 | 0.00 | 20 | 1010.9 |
| 20260904165326 | 85 | 250 | 5.0 | 12.0 | 0.00 | 0.00 | 0.00 | 20 | 1010.9 |
| 20260904164820 | 84 | 287 | 8.0 | 11.0 | 0.00 | 0.00 | 0.00 | 20 | 1010.9 |
| 20260904164315 | 84 | 298 | 6.0 | 11.0 | 0.00 | 0.00 | 0.00 | 20 | 1010.9 |
| 20260904163828 | 84 | 293 | 8.0 | 11.0 | 0.00 | 0.00 | 0.00 | 20 | 1010.8 |
| 20260904163319 | 83 | 267 | 8.0 | 13.0 | 0.00 | 0.00 | 0.00 | 21 | 1010.8 |
| 20260904162832 | 83 | 280 | 9.0 | 13.0 | 0.00 | 0.00 | 0.00 | 21 | 1010.7 |
| 20260904162324 | 83 | 311 | 9.0 | 14.0 | 0.00 | 0.00 | 0.00 | 21 | 1010.6 |
| 20260904161818 | 82 | 275 | 11.0 | 15.0 | 0.00 | 0.00 | 0.00 | 21 | 1010.5 |
| 20260904161349 | 82 | 310 | 11.0 | 15.0 | 0.00 | 0.00 | 0.00 | 22 | 1010.5 |
| 20260904160821 | 82 | 316 | 12.0 | 15.0 | 0.00 | 0.00 | 0.00 | 22 | 1010.4 |
| 20260904160333 | 81 | 302 | 10.0 | 16.0 | 0.00 | 0.00 | 0.00 | 22 | 1010.4 |
| 20260904155826 | 81 | 288 | 12.0 | 16.0 | 0.00 | 0.00 | 0.00 | 22 | 1010.4 |
| 20260904155317 | 81 | 298 | 12.0 | 16.0 | 0.00 | 0.00 | 0.00 | 22 | 1010.3 |
| 20260904154831 | 80 | 272 | 12.0 | 18.0 | 0.00 | 0.00 | 0.00 | 22 | 1010.3 |
| 20260904154322 | 80 | 280 | 15.0 | 18.0 | 0.00 | 0.00 | 0.00 | 23 | 1010.3 |
| 20260904153816 | 80 | 279 | 13.0 | 19.0 | 0.00 | 0.00 | 0.00 | 23 | 1010.1 |
| 20260904153328 | 80 | 271 | 14.0 | 19.0 | 0.00 | 0.00 | 0.00 | 23 | 1010.2 |
| 20260904152820 | 79 | 266 | 14.0 | 18.0 | 0.00 | 0.00 | 0.00 | 22 | 1010.2 |
| 20260904152312 | 79 | 279 | 13.0 | 20.0 | 0.00 | 0.00 | 0.00 | 21 | 1010.1 |
| 20260904151830 | 79 | 273 | 16.0 | 20.0 | 0.00 | 0.00 | 0.00 | 21 | 1010.1 |
| 20260904151323 | 79 | 244 | 15.0 | 19.0 | 0.00 | 0.00 | 0.00 | 20 | 1010.1 |
| 20260904150817 | 79 | 277 | 13.0 | 17.0 | 0.00 | 0.00 | 0.00 | 21 | 1010.0 |
| 20260904150329 | 78 | 290 | 13.0 | 17.0 | 0.00 | 0.00 | 0.00 | 21 | 1010.1 |
| 20260904145816 | 78 | 253 | 14.0 | 19.0 | 0.00 | 0.00 | 0.00 | 22 | 1010.0 |
| 20260904145347 | 77 | 267 | 13.0 | 19.0 | 0.00 | 0.00 | 0.00 | 23 | 1009.9 |
| 20260904144819 | 77 | 252 | 14.0 | 19.0 | 0.00 | 0.00 | 0.00 | 24 | 1009.8 |
| 20260904144331 | 76 | 255 | 13.0 | 19.0 | 0.00 | 0.00 | 0.00 | 24 | 1009.8 |
| 20260904143825 | 76 | 282 | 11.0 | 18.0 | 0.00 | 0.00 | 0.00 | 25 | 1009.8 |
| 20260904143322 | 76 | 283 | 13.0 | 19.0 | 0.00 | 0.00 | 0.00 | 25 | 1009.8 |
| 20260904142816 | 76 | 284 | 15.0 | 19.0 | 0.00 | 0.00 | 0.00 | 23 | 1009.6 |
| 20260904142348 | 76 | 277 | 13.0 | 17.0 | 0.00 | 0.00 | 0.00 | 24 | 1009.6 |
| 20260904141821 | 76 | 284 | 11.0 | 15.0 | 0.00 | 0.00 | 0.00 | 24 | 1009.5 |
| 20260904141314 | 75 | 282 | 11.0 | 16.0 | 0.00 | 0.00 | 0.00 | 24 | 1009.4 |
| 20260904140828 | 75 | 273 | 12.0 | 16.0 | 0.00 | 0.00 | 0.00 | 24 | 1009.3 |
| 20260904140319 | 74 | 298 | 11.0 | 14.0 | 0.00 | 0.00 | 0.00 | 25 | 1009.2 |
| 20260904135828 | 74 | 301 | 11.0 | 15.0 | 0.00 | 0.00 | 0.00 | 25 | 1009.2 |
| 20260904135319 | 74 | 279 | 12.0 | 16.0 | 0.00 | 0.00 | 0.00 | 25 | 1009.1 |
| 20260904134817 | 74 | 275 | 12.0 | 15.0 | 0.00 | 0.00 | 0.00 | 25 | 1009.0 |
| 20260904134328 | 74 | 277 | 10.0 | 15.0 | 0.00 | 0.00 | 0.00 | 25 | 1008.9 |
| 20260904133820 | 74 | 280 | 11.0 | 15.0 | 0.00 | 0.00 | 0.00 | 25 | 1008.9 |
| 20260904133331 | 74 | 291 | 12.0 | 15.0 | 0.00 | 0.00 | 0.00 | 25 | 1008.9 |
| 20260904132825 | 74 | 290 | 12.0 | 15.0 | 0.00 | 0.00 | 0.00 | 25 | 1008.8 |
| 20260904132336 | 74 | 296 | 11.0 | 18.0 | 0.00 | 0.00 | 0.00 | 24 | 1008.8 |
| 20260904131827 | 74 | 308 | 13.0 | 18.0 | 0.00 | 0.00 | 0.00 | 24 | 1008.7 |
| 20260904131319 | 75 | 292 | 13.0 | 18.0 | 0.00 | 0.00 | 0.00 | 23 | 1008.6 |
| 20260904130832 | 75 | 312 | 15.0 | 18.0 | 0.00 | 0.00 | 0.00 | 22 | 1008.5 |
| 20260904130327 | 75 | 302 | 13.0 | 18.0 | 0.00 | 0.00 | 0.00 | 22 | 1008.6 |
| 20260904125816 | 75 | 294 | 14.0 | 18.0 | 0.00 | 0.00 | 0.00 | 22 | 1008.5 |
| 20260904125327 | 75 | 295 | 12.0 | 16.0 | 0.00 | 0.00 | 0.00 | 22 | 1008.4 |
| 20260904124818 | 75 | 299 | 13.0 | 19.0 | 0.00 | 0.00 | 0.00 | 22 | 1008.4 |
| 20260904124327 | 76 | 302 | 14.0 | 19.0 | 0.00 | 0.00 | 0.00 | 22 | 1008.4 |
| 20260904123819 | 76 | 299 | 13.0 | 21.0 | 0.00 | 0.00 | 0.00 | 22 | 1008.4 |
| 20260904123331 | 76 | 291 | 16.0 | 21.0 | 0.00 | 0.00 | 0.00 | 22 | 1008.4 |
| 20260904122843 | 76 | 300 | 15.0 | 21.0 | 0.00 | 0.00 | 0.00 | 22 | 1008.4 |
| 20260904122313 | 76 | 306 | 15.0 | 23.0 | 0.00 | 0.00 | 0.00 | 23 | 1008.4 |
| 20260904121848 | 75 | 314 | 15.0 | 20.0 | 0.00 | 0.00 | 0.00 | 24 | 1008.3 |
| 20260904121318 | 75 | 302 | 11.0 | 16.0 | 0.00 | 0.00 | 0.00 | 25 | 1008.4 |
| 20260904120815 | 75 | 314 | 12.0 | 17.0 | 0.00 | 0.00 | 0.00 | 25 | 1008.4 |
| 20260904120326 | 75 | 304 | 13.0 | 16.0 | 0.00 | 0.00 | 0.00 | 25 | 1008.4 |
| 20260904115815 | 76 | 310 | 13.0 | 19.0 | 0.00 | 0.00 | 0.00 | 26 | 1008.4 |
| 20260904115325 | 76 | 281 | 14.0 | 19.0 | 0.00 | 0.00 | 0.00 | 26 | 1008.4 |
| 20260904114837 | 76 | 295 | 13.0 | 26.0 | 0.00 | 0.00 | 0.00 | 25 | 1008.5 |
| 20260904114347 | 76 | 291 | 16.0 | 26.0 | 0.00 | 0.00 | 0.00 | 25 | 1008.4 |
| 20260904113839 | 76 | 278 | 15.0 | 24.0 | 0.00 | 0.00 | 0.00 | 26 | 1008.4 |
| 20260904113329 | 76 | 265 | 15.0 | 27.0 | 0.00 | 0.00 | 0.00 | 26 | 1008.5 |
| 20260904112820 | 77 | 264 | 16.0 | 27.0 | 0.00 | 0.00 | 0.00 | 25 | 1008.4 |
| 20260904112331 | 77 | 279 | 17.0 | 28.0 | 0.00 | 0.00 | 0.00 | 24 | 1008.4 |
| 20260904111844 | 77 | 273 | 20.0 | 28.0 | 0.00 | 0.00 | 0.00 | 23 | 1008.4 |
| 20260904111317 | 77 | 270 | 18.0 | 24.0 | 0.00 | 0.00 | 0.00 | 23 | 1008.3 |
| 20260904110830 | 76 | 288 | 11.0 | 14.0 | 0.00 | 0.00 | 0.00 | 24 | 1008.3 |
| 20260904110322 | 76 | 306 | 10.0 | 14.0 | 0.00 | 0.00 | 0.00 | 23 | 1008.3 |
| 20260904105831 | 76 | 307 | 10.0 | 15.0 | 0.00 | 0.00 | 0.00 | 22 | 1008.2 |
| 20260904105323 | 76 | 313 | 10.0 | 15.0 | 0.00 | 0.00 | 0.00 | 22 | 1008.2 |
| 20260904104817 | 77 | 279 | 11.0 | 17.0 | 0.00 | 0.00 | 0.00 | 22 | 1008.1 |
| 20260904104328 | 77 | 273 | 13.0 | 19.0 | 0.00 | 0.00 | 0.00 | 23 | 1008.1 |
| 20260904103820 | 77 | 270 | 15.0 | 19.0 | 0.00 | 0.00 | 0.00 | 24 | 1008.1 |
| 20260904103330 | 75 | 287 | 14.0 | 19.0 | 0.00 | 0.00 | 0.00 | 26 | 1008.1 |
| 20260904102842 | 75 | 312 | 10.0 | 14.0 | 0.00 | 0.00 | 0.00 | 27 | 1008.1 |
| 20260904102316 | 75 | 286 | 10.0 | 17.0 | 0.00 | 0.00 | 0.00 | 27 | 1008.0 |
| 20260904101828 | 75 | 267 | 13.0 | 18.0 | 0.00 | 0.00 | 0.00 | 28 | 1007.9 |
| 20260904101340 | 75 | 256 | 12.0 | 18.0 | 0.00 | 0.00 | 0.00 | 28 | 1007.9 |
| 20260904100832 | 75 | 270 | 13.0 | 20.0 | 0.00 | 0.00 | 0.00 | 28 | 1007.9 |
| 20260904100324 | 75 | 291 | 15.0 | 21.0 | 0.00 | 0.00 | 0.00 | 29 | 1007.8 |
| 20260904095853 | 75 | 274 | 15.0 | 21.0 | 0.00 | 0.00 | 0.00 | 29 | 1007.8 |
| 20260904095322 | 75 | 277 | 15.0 | 18.0 | 0.00 | 0.00 | 0.00 | 30 | 1007.8 |
| 20260904094814 | 76 | 288 | 15.0 | 20.0 | 0.00 | 0.00 | 0.00 | 30 | 1007.7 |
| 20260904094325 | 77 | 265 | 15.0 | 21.0 | 0.00 | 0.00 | 0.00 | 30 | 1007.8 |
| 20260904093822 | 77 | 294 | 15.0 | 21.0 | 0.00 | 0.00 | 0.00 | 30 | 1007.7 |
| 20260904093314 | 77 | 291 | 17.0 | 23.0 | 0.00 | 0.00 | 0.00 | 30 | 1007.8 |
| 20260904092827 | 77 | 299 | 17.0 | 23.0 | 0.00 | 0.00 | 0.00 | 30 | 1007.7 |
| 20260904092319 | 77 | 314 | 16.0 | 22.0 | 0.00 | 0.00 | 0.00 | 31 | 1007.8 |
| 20260904091813 | 77 | 291 | 16.0 | 21.0 | 0.00 | 0.00 | 0.00 | 31 | 1007.8 |
| 20260904091325 | 77 | 319 | 16.0 | 21.0 | 0.00 | 0.00 | 0.00 | 32 | 1007.9 |
| 20260904090838 | 77 | 320 | 18.0 | 21.0 | 0.00 | 0.00 | 0.00 | 32 | 1007.8 |
| 20260904090328 | 76 | 313 | 15.0 | 21.0 | 0.00 | 0.00 | 0.00 | 32 | 1007.9 |
| 20260904085817 | 77 | 300 | 17.0 | 24.0 | 0.00 | 0.00 | 0.00 | 32 | 1008.0 |
| 20260904085333 | 77 | 311 | 15.0 | 24.0 | 0.00 | 0.00 | 0.00 | 32 | 1008.1 |
| 20260904084826 | 77 | 292 | 16.0 | 25.0 | 0.00 | 0.00 | 0.00 | 32 | 1008.1 |
| 20260904084336 | 77 | 303 | 18.0 | 24.0 | 0.00 | 0.00 | 0.00 | 32 | 1008.2 |
| 20260904083828 | 77 | 289 | 19.0 | 25.0 | 0.00 | 0.00 | 0.00 | 32 | 1008.2 |
| 20260904083321 | 77 | 283 | 18.0 | 25.0 | 0.00 | 0.00 | 0.00 | 32 | 1008.2 |
| 20260904082813 | 77 | 291 | 20.0 | 26.0 | 0.00 | 0.00 | 0.00 | 32 | 1008.2 |
| 20260904082324 | 76 | 316 | 17.0 | 26.0 | 0.00 | 0.00 | 0.00 | 32 | 1008.3 |
| 20260904081837 | 76 | 290 | 20.0 | 24.0 | 0.00 | 0.00 | 0.00 | 33 | 1008.3 |
| 20260904081326 | 76 | 299 | 19.0 | 24.0 | 0.00 | 0.00 | 0.00 | 33 | 1008.3 |
| 20260904080822 | 76 | 309 | 18.0 | 25.0 | 0.00 | 0.00 | 0.00 | 33 | 1008.4 |
| 20260904080313 | 76 | 294 | 19.0 | 25.0 | 0.00 | 0.00 | 0.00 | 34 | 1008.5 |
| 20260904075843 | 76 | 279 | 19.0 | 24.0 | 0.00 | 0.00 | 0.00 | 35 | 1008.4 |
| 20260904075334 | 76 | 288 | 18.0 | 26.0 | 0.00 | 0.00 | 0.00 | 35 | 1008.4 |
| 20260904074827 | 76 | 304 | 20.0 | 26.0 | 0.00 | 0.00 | 0.00 | 36 | 1008.4 |
| 20260904074339 | 76 | 286 | 20.0 | 28.0 | 0.00 | 0.00 | 0.00 | 37 | 1008.5 |
| 20260904073852 | 76 | 296 | 20.0 | 27.0 | 0.00 | 0.00 | 0.00 | 38 | 1008.4 |
| 20260904073343 | 76 | 305 | 17.0 | 27.0 | 0.00 | 0.00 | 0.00 | 38 | 1008.5 |
| 20260904072815 | 76 | 274 | 18.0 | 28.0 | 0.00 | 0.00 | 0.00 | 41 | 1008.4 |
| 20260904072327 | 76 | 302 | 21.0 | 28.0 | 0.00 | 0.00 | 0.00 | 41 | 1008.4 |
| 20260904071817 | 76 | 290 | 19.0 | 32.0 | 0.00 | 0.00 | 0.00 | 43 | 1008.3 |
| 20260904071347 | 76 | 281 | 18.0 | 32.0 | 0.00 | 0.00 | 0.00 | 44 | 1008.3 |
| 20260904070816 | 76 | 286 | 19.0 | 26.0 | 0.00 | 0.00 | 0.00 | 44 | 1008.3 |
| 20260904070328 | 76 | 273 | 19.0 | 27.0 | 0.00 | 0.00 | 0.00 | 45 | 1008.3 |
| 20260904065821 | 76 | 287 | 21.0 | 32.0 | 0.00 | 0.00 | 0.00 | 45 | 1008.2 |
| 20260904065332 | 76 | 275 | 22.0 | 32.0 | 0.00 | 0.00 | 0.00 | 45 | 1008.1 |
| 20260904064825 | 76 | 285 | 19.0 | 26.0 | 0.00 | 0.00 | 0.00 | 45 | 1008.3 |
| 20260904064337 | 76 | 285 | 18.0 | 28.0 | 0.00 | 0.00 | 0.00 | 45 | 1008.2 |
| 20260904063828 | 76 | 300 | 21.0 | 31.0 | 0.00 | 0.00 | 0.00 | 45 | 1008.2 |
| 20260904063318 | 76 | 308 | 23.0 | 33.0 | 0.00 | 0.00 | 0.00 | 45 | 1008.2 |
| 20260904062833 | 76 | 266 | 24.0 | 34.0 | 0.00 | 0.00 | 0.00 | 44 | 1008.2 |
| 20260904062324 | 76 | 263 | 24.0 | 34.0 | 0.00 | 0.00 | 0.00 | 44 | 1008.2 |
| 20260904061837 | 76 | 275 | 22.0 | 34.0 | 0.00 | 0.00 | 0.00 | 43 | 1008.2 |
| 20260904061330 | 76 | 301 | 27.0 | 34.0 | 0.00 | 0.00 | 0.00 | 42 | 1008.2 |
| 20260904060842 | 76 | 286 | 24.0 | 34.0 | 0.00 | 0.00 | 0.00 | 41 | 1008.2 |
| 20260904060332 | 76 | 295 | 27.0 | 34.0 | 0.00 | 0.00 | 0.00 | 41 | 1008.3 |
| 20260904055822 | 76 | 302 | 23.0 | 35.0 | 0.00 | 0.00 | 0.00 | 41 | 1008.3 |
| 20260904055313 | 76 | 300 | 22.0 | 35.0 | 0.00 | 0.00 | 0.00 | 41 | 1008.2 |
| 20260904054826 | 76 | 286 | 25.0 | 34.0 | 0.00 | 0.00 | 0.00 | 41 | 1008.3 |
| 20260904054317 | 77 | 292 | 25.0 | 34.0 | 0.00 | 0.00 | 0.00 | 41 | 1008.3 |
| 20260904053849 | 77 | 307 | 23.0 | 31.0 | 0.00 | 0.00 | 0.00 | 40 | 1008.3 |
| 20260904053319 | 77 | 292 | 21.0 | 29.0 | 0.00 | 0.00 | 0.00 | 40 | 1008.2 |
| 20260904052817 | 77 | 288 | 24.0 | 29.0 | 0.00 | 0.00 | 0.00 | 40 | 1008.2 |
| 20260904052329 | 77 | 306 | 19.0 | 27.0 | 0.00 | 0.00 | 0.00 | 39 | 1008.2 |
| 20260904051822 | 77 | 292 | 17.0 | 25.0 | 0.00 | 0.00 | 0.00 | 39 | 1008.3 |
| 20260904051314 | 77 | 296 | 20.0 | 25.0 | 0.00 | 0.00 | 0.00 | 39 | 1008.3 |
| 20260904050826 | 77 | 284 | 19.0 | 25.0 | 0.00 | 0.00 | 0.00 | 38 | 1008.3 |
| 20260904050336 | 78 | 295 | 20.0 | 29.0 | 0.00 | 0.00 | 0.00 | 38 | 1008.3 |
| 20260904045825 | 78 | 285 | 22.0 | 29.0 | 0.00 | 0.00 | 0.00 | 38 | 1008.3 |
| 20260904045335 | 78 | 288 | 20.0 | 29.0 | 0.00 | 0.00 | 0.00 | 38 | 1008.3 |
| 20260904044827 | 78 | 284 | 19.0 | 28.0 | 0.00 | 0.00 | 0.00 | 38 | 1008.4 |
| 20260904044338 | 78 | 296 | 19.0 | 26.0 | 0.00 | 0.00 | 0.00 | 38 | 1008.3 |
| 20260904043814 | 78 | 296 | 19.0 | 28.0 | 0.00 | 0.00 | 0.00 | 37 | 1008.4 |
| 20260904043325 | 78 | 290 | 21.0 | 28.0 | 0.00 | 0.00 | 0.00 | 37 | 1008.4 |
| 20260904042818 | 78 | 294 | 20.0 | 25.0 | 0.00 | 0.00 | 0.00 | 36 | 1008.4 |
| 20260904042329 | 78 | 273 | 20.0 | 27.0 | 0.00 | 0.00 | 0.00 | 36 | 1008.3 |
| 20260904041822 | 79 | 306 | 20.0 | 25.0 | 0.00 | 0.00 | 0.00 | 36 | 1008.4 |
| 20260904041314 | 79 | 284 | 18.0 | 26.0 | 0.00 | 0.00 | 0.00 | 35 | 1008.5 |
| 20260904040828 | 79 | 305 | 19.0 | 26.0 | 0.00 | 0.00 | 0.00 | 35 | 1008.4 |
| 20260904040319 | 79 | 290 | 19.0 | 26.0 | 0.00 | 0.00 | 0.00 | 34 | 1008.3 |
| 20260904035828 | 79 | 281 | 19.0 | 30.0 | 0.00 | 0.00 | 0.00 | 34 | 1008.2 |
| 20260904035319 | 79 | 306 | 20.0 | 30.0 | 0.00 | 0.00 | 0.00 | 34 | 1008.2 |
| 20260904034816 | 80 | 325 | 19.0 | 29.0 | 0.00 | 0.00 | 0.00 | 34 | 1008.1 |
| 20260904034328 | 80 | 305 | 17.0 | 26.0 | 0.00 | 0.00 | 0.00 | 33 | 1008.0 |
| 20260904033820 | 80 | 315 | 21.0 | 27.0 | 0.00 | 0.00 | 0.00 | 33 | 1008.0 |
| 20260904033351 | 80 | 304 | 17.0 | 27.0 | 0.00 | 0.00 | 0.00 | 33 | 1008.0 |
| 20260904032823 | 81 | 319 | 21.0 | 26.0 | 0.00 | 0.00 | 0.00 | 33 | 1007.9 |
| 20260904032333 | 81 | 311 | 18.0 | 29.0 | 0.00 | 0.00 | 0.00 | 32 | 1007.8 |
| 20260904031825 | 81 | 309 | 18.0 | 27.0 | 0.00 | 0.00 | 0.00 | 32 | 1007.7 |
| 20260904031315 | 81 | 300 | 19.0 | 28.0 | 0.00 | 0.00 | 0.00 | 32 | 1007.7 |
| 20260904030849 | 81 | 317 | 20.0 | 28.0 | 0.00 | 0.00 | 0.00 | 32 | 1007.6 |
| 20260904030319 | 82 | 293 | 19.0 | 29.0 | 0.00 | 0.00 | 0.00 | 32 | 1007.5 |
| 20260904025813 | 82 | 292 | 22.0 | 29.0 | 0.00 | 0.00 | 0.00 | 32 | 1007.5 |
| 20260904025325 | 82 | 291 | 21.0 | 25.0 | 0.00 | 0.00 | 0.00 | 31 | 1007.5 |
| 20260904024818 | 82 | 300 | 19.0 | 26.0 | 0.00 | 0.00 | 0.00 | 31 | 1007.4 |
| 20260904024329 | 83 | 291 | 17.0 | 26.0 | 0.00 | 0.00 | 0.00 | 31 | 1007.4 |
| 20260904023822 | 83 | 310 | 19.0 | 26.0 | 0.00 | 0.00 | 0.00 | 31 | 1007.3 |
| 20260904023313 | 83 | 306 | 19.0 | 26.0 | 0.00 | 0.00 | 0.00 | 30 | 1007.3 |
| 20260904022845 | 84 | 304 | 19.0 | 28.0 | 0.00 | 0.00 | 0.00 | 30 | 1007.3 |
| 20260904022314 | 84 | 290 | 19.0 | 29.0 | 0.00 | 0.00 | 0.00 | 29 | 1007.2 |
| 20260904021827 | 84 | 289 | 20.0 | 29.0 | 0.00 | 0.00 | 0.00 | 29 | 1007.2 |
| 20260904021322 | 85 | 288 | 19.0 | 26.0 | 0.00 | 0.00 | 0.00 | 28 | 1007.3 |
| 20260904020814 | 85 | 304 | 18.0 | 25.0 | 0.00 | 0.00 | 0.00 | 28 | 1007.2 |
| 20260904020325 | 86 | 298 | 18.0 | 31.0 | 0.00 | 0.00 | 0.00 | 28 | 1007.3 |
| 20260904015815 | 86 | 302 | 19.0 | 31.0 | 0.00 | 0.00 | 0.00 | 27 | 1007.3 |
| 20260904015326 | 87 | 298 | 20.0 | 26.0 | 0.00 | 0.00 | 0.00 | 27 | 1007.3 |
| 20260904014819 | 87 | 291 | 20.0 | 26.0 | 0.00 | 0.00 | 0.00 | 26 | 1007.2 |
| 20260904014328 | 87 | 289 | 18.0 | 30.0 | 0.00 | 0.00 | 0.00 | 26 | 1007.2 |
| 20260904013821 | 88 | 267 | 24.0 | 30.0 | 0.00 | 0.00 | 0.00 | 25 | 1007.1 |
| 20260904013316 | 89 | 289 | 21.0 | 26.0 | 0.00 | 0.00 | 0.00 | 24 | 1007.2 |
| 20260904012830 | 89 | 272 | 15.0 | 24.0 | 0.00 | 0.00 | 0.00 | 23 | 1007.2 |
| 20260904012321 | 89 | 262 | 19.0 | 27.0 | 0.00 | 0.00 | 0.00 | 23 | 1007.1 |
| 20260904011813 | 90 | 279 | 20.0 | 27.0 | 0.00 | 0.00 | 0.00 | 22 | 1007.1 |
| 20260904011324 | 90 | 267 | 19.0 | 27.0 | 0.00 | 0.00 | 0.00 | 21 | 1007.1 |
| 20260904010838 | 91 | 263 | 19.0 | 27.0 | 0.00 | 0.00 | 0.00 | 21 | 1007.1 |
| 20260904010327 | 92 | 262 | 15.0 | 24.0 | 0.00 | 0.00 | 0.00 | 20 | 1007.1 |
| 20260904005817 | 92 | 260 | 14.0 | 23.0 | 0.00 | 0.00 | 0.00 | 18 | 1007.1 |
| 20260904005328 | 92 | 269 | 17.0 | 23.0 | 0.00 | 0.00 | 0.00 | 19 | 1007.0 |
| 20260904004818 | 92 | 297 | 13.0 | 25.0 | 0.00 | 0.00 | 0.00 | 18 | 1007.1 |
| 20260904004313 | 92 | 251 | 19.0 | 25.0 | 0.00 | 0.00 | 0.00 | 18 | 1007.0 |
| 20260904003846 | 93 | 279 | 13.0 | 20.0 | 0.00 | 0.00 | 0.00 | 17 | 1007.0 |
| 20260904003317 | 93 | 265 | 14.0 | 20.0 | 0.00 | 0.00 | 0.00 | 16 | 1007.0 |
| 20260904002850 | 93 | 283 | 16.0 | 22.0 | 0.00 | 0.00 | 0.00 | 16 | 1006.9 |
| 20260904002320 | 93 | 256 | 19.0 | 23.0 | 0.00 | 0.00 | 0.00 | 17 | 1006.9 |
| 20260904001815 | 93 | 289 | 15.0 | 23.0 | 0.00 | 0.00 | 0.00 | 16 | 1007.0 |
| 20260904001326 | 94 | 268 | 16.0 | 24.0 | 0.00 | 0.00 | 0.00 | 16 | 1007.0 |
| 20260904000819 | 94 | 282 | 13.0 | 20.0 | 0.00 | 0.00 | 0.00 | 15 | 1007.0 |
| 20260904000333 | 94 | 279 | 13.0 | 21.0 | 0.00 | 0.00 | 0.00 | 15 | 1007.0 |
| 20260903235820 | 94 | 266 | 11.0 | 21.0 | 0.00 | 0.00 | 0.00 | 15 | 1007.1 |
| 20260903235315 | 94 | 282 | 15.0 | 21.0 | 0.00 | 0.00 | 0.00 | 14 | 1007.0 |
| 20260903234828 | 94 | 283 | 8.0 | 19.0 | 0.00 | 0.00 | 0.00 | 14 | 1007.2 |
| 20260903234319 | 94 | 277 | 11.0 | 22.0 | 0.00 | 0.00 | 0.00 | 14 | 1007.2 |
| 20260903233813 | 94 | 263 | 15.0 | 22.0 | 0.00 | 0.00 | 0.00 | 14 | 1007.3 |
| 20260903233325 | 94 | 271 | 16.0 | 23.0 | 0.00 | 0.00 | 0.00 | 15 | 1007.4 |
| 20260903232817 | 95 | 325 | 15.0 | 21.0 | 0.00 | 0.00 | 0.00 | 14 | 1007.3 |
| 20260903232350 | 95 | 281 | 16.0 | 21.0 | 0.00 | 0.00 | 0.00 | 14 | 1007.3 |
| 20260903231823 | 94 | 272 | 13.0 | 17.0 | 0.00 | 0.00 | 0.00 | 14 | 1007.4 |
| 20260903231335 | 95 | 290 | 10.0 | 17.0 | 0.00 | 0.00 | 0.00 | 13 | 1007.5 |
| 20260903230831 | 95 | 275 | 11.0 | 17.0 | 0.00 | 0.00 | 0.00 | 13 | 1007.5 |
| 20260903230324 | 95 | 278 | 11.0 | 20.0 | 0.00 | 0.00 | 0.00 | 13 | 1007.6 |
| 20260903225853 | 95 | 277 | 16.0 | 20.0 | 0.00 | 0.00 | 0.00 | 13 | 1007.6 |
| 20260903225323 | 95 | 307 | 14.0 | 20.0 | 0.00 | 0.00 | 0.00 | 13 | 1007.6 |
| 20260903224837 | 95 | 273 | 8.0 | 16.0 | 0.00 | 0.00 | 0.00 | 13 | 1007.7 |
| 20260903224328 | 95 | 292 | 12.0 | 24.0 | 0.00 | 0.00 | 0.00 | 13 | 1007.8 |
| 20260903223823 | 95 | 250 | 13.0 | 24.0 | 0.00 | 0.00 | 0.00 | 13 | 1007.8 |
| 20260903223315 | 95 | 259 | 12.0 | 17.0 | 0.00 | 0.00 | 0.00 | 13 | 1007.9 |
| 20260903222829 | 95 | 255 | 9.0 | 17.0 | 0.00 | 0.00 | 0.00 | 13 | 1008.0 |
| 20260903222339 | 94 | 248 | 13.0 | 17.0 | 0.00 | 0.00 | 0.00 | 13 | 1008.1 |
| 20260903221813 | 94 | 263 | 9.0 | 20.0 | 0.00 | 0.00 | 0.00 | 12 | 1008.1 |
| 20260903221324 | 95 | 244 | 12.0 | 20.0 | 0.00 | 0.00 | 0.00 | 12 | 1008.2 |
| 20260903220817 | 95 | 272 | 12.0 | 17.0 | 0.00 | 0.00 | 0.00 | 12 | 1008.2 |
| 20260903220328 | 95 | 252 | 9.0 | 18.0 | 0.00 | 0.00 | 0.00 | 12 | 1008.3 |
| 20260903215817 | 95 | 286 | 14.0 | 18.0 | 0.00 | 0.00 | 0.00 | 12 | 1008.3 |
| 20260903215328 | 94 | 269 | 7.0 | 18.0 | 0.00 | 0.00 | 0.00 | 12 | 1008.4 |
| 20260903214820 | 94 | 322 | 12.0 | 18.0 | 0.00 | 0.00 | 0.00 | 12 | 1008.6 |
| 20260903214330 | 94 | 242 | 5.0 | 17.0 | 0.00 | 0.00 | 0.00 | 12 | 1008.6 |
| 20260903213822 | 94 | 264 | 11.0 | 17.0 | 0.00 | 0.00 | 0.00 | 12 | 1008.6 |
| 20260903213317 | 94 | 267 | 5.0 | 17.0 | 0.00 | 0.00 | 0.00 | 12 | 1008.7 |
| 20260903212828 | 94 | 248 | 12.0 | 17.0 | 0.00 | 0.00 | 0.00 | 12 | 1008.8 |
| 20260903212318 | 94 | 241 | 14.0 | 17.0 | 0.00 | 0.00 | 0.00 | 12 | 1008.8 |
| 20260903211831 | 94 | 314 | 12.0 | 19.0 | 0.00 | 0.00 | 0.00 | 12 | 1008.9 |
| 20260903211343 | 94 | 250 | 14.0 | 19.0 | 0.00 | 0.00 | 0.00 | 12 | 1008.8 |
| 20260903210814 | 93 | 271 | 8.0 | 12.0 | 0.00 | 0.00 | 0.00 | 13 | 1008.9 |
| 20260903210324 | 93 | 256 | 5.0 | 13.0 | 0.00 | 0.00 | 0.00 | 12 | 1008.9 |
| 20260903205816 | 94 | 302 | 9.0 | 15.0 | 0.00 | 0.00 | 0.00 | 12 | 1008.9 |
| 20260903205328 | 94 | 203 | 6.0 | 15.0 | 0.00 | 0.00 | 0.00 | 13 | 1009.0 |
| 20260903204820 | 93 | 195 | 3.0 | 12.0 | 0.00 | 0.00 | 0.00 | 13 | 1009.0 |
| 20260903204336 | 93 | 253 | 7.0 | 17.0 | 0.00 | 0.00 | 0.00 | 12 | 1009.1 |
| 20260903203827 | 93 | 315 | 11.0 | 17.0 | 0.00 | 0.00 | 0.00 | 12 | 1009.1 |
| 20260903203317 | 93 | 280 | 3.0 | 12.0 | 0.00 | 0.00 | 0.00 | 12 | 1009.2 |
| 20260903202830 | 93 | 338 | 5.0 | 15.0 | 0.00 | 0.00 | 0.00 | 13 | 1009.2 |
| 20260903202322 | 93 | 298 | 9.0 | 17.0 | 0.00 | 0.00 | 0.00 | 12 | 1009.4 |
| 20260903201814 | 93 | 290 | 10.0 | 16.0 | 0.00 | 0.00 | 0.00 | 12 | 1009.4 |
| 20260903201325 | 92 | 286 | 7.0 | 15.0 | 0.00 | 0.00 | 0.00 | 12 | 1009.4 |
| 20260903200817 | 92 | 254 | 8.0 | 16.0 | 0.00 | 0.00 | 0.00 | 11 | 1009.4 |
| 20260903200328 | 92 | 248 | 11.0 | 16.0 | 0.00 | 0.00 | 0.00 | 11 | 1009.5 |
| 20260903195821 | 92 | 270 | 8.0 | 13.0 | 0.00 | 0.00 | 0.00 | 11 | 1009.5 |
| 20260903195332 | 91 | 301 | 5.0 | 12.0 | 0.00 | 0.00 | 0.00 | 11 | 1009.6 |
| 20260903194824 | 91 | 235 | 7.0 | 16.0 | 0.00 | 0.00 | 0.00 | 11 | 1009.7 |
| 20260903194336 | 91 | 240 | 4.0 | 16.0 | 0.00 | 0.00 | 0.00 | 11 | 1009.7 |
| 20260903193848 | 90 | 265 | 8.0 | 13.0 | 0.00 | 0.00 | 0.00 | 11 | 1009.8 |
| 20260903193319 | 90 | 276 | 6.0 | 13.0 | 0.00 | 0.00 | 0.00 | 12 | 1009.9 |
| 20260903192832 | 90 | 257 | 5.0 | 13.0 | 0.00 | 0.00 | 0.00 | 11 | 1010.0 |
| 20260903192324 | 90 | 277 | 6.0 | 11.0 | 0.00 | 0.00 | 0.00 | 11 | 1010.1 |
| 20260903191837 | 90 | 219 | 4.0 | 12.0 | 0.00 | 0.00 | 0.00 | 11 | 1010.2 |
| 20260903191327 | 90 | 260 | 5.0 | 12.0 | 0.00 | 0.00 | 0.00 | 12 | 1010.3 |
| 20260903190825 | 90 | 271 | 6.0 | 12.0 | 0.00 | 0.00 | 0.00 | 12 | 1010.4 |
| 20260903190316 | 90 | 254 | 7.0 | 14.0 | 0.00 | 0.00 | 0.00 | 12 | 1010.4 |
| 20260903185825 | 89 | 302 | 5.0 | 14.0 | 0.00 | 0.00 | 0.00 | 12 | 1010.5 |
| 20260903185317 | 89 | 225 | 7.0 | 13.0 | 0.00 | 0.00 | 0.00 | 12 | 1010.6 |
| 20260903184828 | 89 | 242 | 8.0 | 12.0 | 0.00 | 0.00 | 0.00 | 12 | 1010.7 |
| 20260903184318 | 89 | 261 | 8.0 | 12.0 | 0.00 | 0.00 | 0.00 | 12 | 1010.7 |
| 20260903183830 | 89 | 284 | 8.0 | 12.0 | 0.00 | 0.00 | 0.00 | 13 | 1010.8 |
| 20260903183341 | 88 | 254 | 4.0 | 14.0 | 0.00 | 0.00 | 0.00 | 13 | 1010.9 |
| 20260903182832 | 88 | 263 | 7.0 | 15.0 | 0.00 | 0.00 | 0.00 | 13 | 1010.9 |
| 20260903182323 | 88 | 232 | 8.0 | 16.0 | 0.00 | 0.00 | 0.00 | 13 | 1011.0 |
| 20260903181839 | 88 | 248 | 12.0 | 16.0 | 0.00 | 0.00 | 0.00 | 14 | 1011.0 |